Regional Weather Roundup
Issued by NWS

Home | Current Version | Previous Version | Text Only | Print | Product List | Glossary On
Versions: 1 2 3 4 5 6 7 8 9 10 11 12 13 14 15 16 17 18 19 20 21 22 23 24 25 26 27 28 29 30 31 32 33 34 35 36 37 38 39 40 41 42 43 44 45 46 47 48 49 50
000
ASUS43 KDTX 212201
RWRMI
MICHIGAN HOURLY REGIONAL WEATHER ROUNDUP
NATIONAL WEATHER SERVICE DETROIT/PONTIAC MI
600 PM EDT THU SEP 21 2017

NOTE: "FAIR" INDICATES FEW OR NO CLOUDS BELOW 12,000 FEET WITH NO
SIGNIFICANT WEATHER AND/OR OBSTRUCTION TO VISIBILITY.

MIZ047>049-052>055-059>063-066>070-074>076-081>083-212300-
SOUTHEAST LOWER MICHIGAN

CITY           SKY/WX    TMP DP  RH WIND       PRES   REMARKS
ADRIAN         SUNNY     90  66  45 W7        30.03S HX  92
ALMA           CLOUDY    87  61  41 SE10      30.04R
ANN ARBOR      CLOUDY    89  68  49 MISG      30.02S HX  93
BAD AXE        MOSUNNY   85  70  60 SE7       30.03S
CARO           MOSUNNY   85  69  59 S5        30.02R
DETROIT CITY   SUNNY     86  71  60 SE8       30.03S HX  91
DETROIT        MOSUNNY   84  72  67 S7        30.04R
FLINT          TSTM      72  62  71 SW6       30.06R
GROSSE ILE     SUNNY     81  71  73 SE7       30.03S
HILLSDALE      SUNNY     82  70  65 CALM      30.05S
HOWELL         CLOUDY    76  65  67 N12G22    30.09R

CITY           SKY/WX    TMP DP  RH WIND       PRES   REMARKS
JACKSON        MOSUNNY   89  65  44 SW9       30.04R HX  91
LAMBERTVILLE   SUNNY     86  72  62 E5        30.03R HX  91
LANSING        TSTM      69  64  84 NW8       30.11R
LAPEER         FAIR      83  71  65 SE5       30.04R
MASON          CLOUDY    79  62  54 N14G22    30.07R
MONROE         SUNNY     82  70  67 SE7       30.03S
MT. CLEMENS    MOSUNNY   80  71  74 SE12      30.04R
PONTIAC        CLOUDY    87  69  54 SE7       30.04R HX  91
PORT HOPE        N/A     82  69  64 SE12G18   30.01R
PORT HURON     SUNNY     84  70  61 S5        30.05R
TRI CITIES     CLOUDY    86  69  56 S15       30.04R HX  90
MIDLAND        FAIR      89  70  52 SW5       30.01R HX  94
TROY           MOSUNNY   87  70  56 SE3       30.05S HX  91
SAGINAW HB     LGT RAIN  81  68  65 S13       30.03R
$$
MIZ043>046-050>051-056>058-064>065-071>073-077>080-212300-
SOUTHWEST LOWER MICHIGAN

CITY           SKY/WX    TMP DP  RH WIND       PRES   REMARKS
BATTLE CREEK   RAIN      73  67  81 E7        30.06S
BENTON HARBOR  SUNNY     84  70  62 N3        30.01R
BIG RAPIDS     SUNNY     86  64  47 NW5       30.02S
COLDWATER      CLOUDY    88  65  47 S3        30.03S HX  90
FREMONT        FAIR      85  66  54 W3        30.01S
HOLLAND        SUNNY     87  71  58 VRB5      30.01S HX  93
GRAND RAPIDS   CLOUDY    92  68  45 NW7       30.00S HX  96
IONIA          FAIR      87  64  45 SE12      30.02R
KALAMAZOO      LGT RAIN  82  65  56 N14       30.04R
LUDINGTON      MOSUNNY   74  67  79 CALM      30.00F
MARSHALL       CLOUDY    82  65  56 NW3G24    30.05R
MOUNT PLEASANT CLOUDY    92  64  39 SW6       30.01R HX  93
MUSKEGON       PTSUNNY   85  69  58 NW3       30.01S
SOUTH HAVEN    SUNNY     84  70  63 CALM      30.01S
$$
MIZ016>042-212300-
NORTHERN LOWER MICHIGAN

CITY           SKY/WX    TMP DP  RH WIND       PRES   REMARKS
ALPENA         LGT RAIN  73  69  87 CALM      30.03S
BEAVER ISLAND  SUNNY     78  68  71 N3        30.01F
BELLAIRE       PTSUNNY   81  67  62 CALM      30.01R
CADILLAC       CLOUDY    88  62  41 W5        30.03S
CHARLEVOIX     SUNNY     77  66  69 CALM      30.05S
FRANKFORT      CLOUDY    77  67  71 SW5       30.02S
GAYLORD        PTSUNNY   81  69  67 N5        30.04R
GRAYLING       PTSUNNY   85  66  52 CALM      30.03R
HARBOR SPRINGS CLOUDY    72  69  90 CALM      30.02R
HOUGHTON LAKE  SUNNY     86  68  54 SW6       30.03S
MANISTEE       MOSUNNY   79  69  71 W5        30.00F
OSCODA         SUNNY     80  67  64 SE7       30.01S
PELLSTON       MOSUNNY   77  69  76 E8        30.03R
ROGERS CITY    SUNNY     73  67  82 E5        30.05S
TRAVERSE CITY  PTSUNNY   79  68  69 N8        29.99S
$$
MIZ007>008-015-212300-
EASTERN UPPER MICHIGAN

CITY           SKY/WX    TMP DP  RH WIND       PRES   REMARKS
KINROSS        CLOUDY    76  70  82 E8        30.04R
MACKINAC ISLAN SUNNY     74  67  79 E8        30.02S
NEWBERRY       CLOUDY    73  72  94 NE8       30.02S
S. S. MARIE    CLOUDY    77  69  76 SE7       30.03S
MUNISING         N/A     60  60 100 NE7       30.02F
$$
MIZ004>006-011>014-085-212300-
CENTRAL UPPER MICHIGAN

CITY           SKY/WX    TMP DP  RH WIND       PRES   REMARKS
MANISTIQUE     SUNNY     71  65  81 S8        30.01S
ESCANABA       SUNNY     73  67  81 S6        30.00F
MENOMINEE      MOSUNNY   75  68  78 SE3       30.00F
SAWYER-GWINN   SUNNY     68  55  64 NE8       30.03S
$$
MIZ001>003-009>011-084-212300-
WESTERN UPPER MICHIGAN

CITY           SKY/WX    TMP DP  RH WIND       PRES   REMARKS
IRON MOUNTAIN  CLOUDY    78  65  63 SE8       29.98F
HOUGHTON       SUNNY     64  49  57 E13       30.01S
COPPER HARBOR    N/A     61  55  81 VRB6      30.02F
IRONWOOD       SUNNY     79  64  60 SE12      29.94F
$$

ABBREVIATIONS USED IN REMARKS
   TC - TEMPERATURE IN CELSIUS
  WCI - WIND CHILL INDEX
   HX - HEAT INDEX
  VSB - VISIBILITY





USA.gov is the U.S. government's official web portal to all federal, state and local government web resources and services.